sat.trackr.live / text

‹ back to catalog

STARLINK-31657

NORAD 59487 · 2024-071D

PAYLOAD ACTIVE UNKNOWN

§ Identity

Operator
Country
US
Launch date
2024-04-13
Launch site
AFETR
Launch vehicle
Mass (kg)
RCS (m²)

Purposes: comms

External: N2YO · Heavens-Above · Gunter

§ Orbital elements

Epoch: 2026-09-21T10:28:57.635616Z

Period
94.27 min
Inclination
43.0005°
Eccentricity
0.0000867
Mean motion
15.27579437 rev/d
Perigee alt
482.5 km
Apogee alt
483.6 km
Semi-major
6,861.2 km
B*
1.8128e-5
RAAN
314.1793°
Arg perigee
275.1855°
Mean anomaly
84.8897°
Rev number
13,814

§ Raw data

STARLINK-316571 59487U 24071D   26264.43677819  .00000237  00000+0  18128-4 0  99972 59487  43.0005 314.1793 0000867 275.1855  84.8897 15.27579437138140

JSON: /api/v1/satellites/59487 · /tle

For live sub-satellite position, see the globe view (requires WebGL).

§ Visibility from observer

Set your observer location to see the next 7 days of passes ≥ 10°. The values pass through the URL so the page stays shareable.

No JS? Fill the form by hand. The geolocation button needs JavaScript.